Location: Eindhoven
(51.4416°N, 5.4697°E)
Time: 19:41:14
(UTC+01:00)

deb Explorer IX - Pass Details

Date: 23 November 2019
Orbit: 546 x 1104 km, 38.8° (Epoch: 11 December)

Event Time Altitude Azimuth Distance (km) Brightness Sun altitude
Rises 01:42:56 0° 241° (WSW) 3,794 - -55.2°
Reaches altitude 10° 01:46:14 10° 229° (SW) 2,768 - -54.9°
Maximum altitude 01:51:28 25° 177° (S) 1,780 - -54.4°
Drops below altitude 10° 01:56:10 10° 124° (SE) 2,466 - -54.0°
Sets 01:58:56 0° 111° (ESE) 3,299 - -53.7°
